Regional Weather Roundup
Issued by NWS Midland/Odessa, TX

Skip options and go directly to product.
Home | Oldest Version | Previous Version | Current Version | All | Text Only | Save Text | Print | Product List | Glossary On

Skip product version selection by date and time.   
472
ASUS44 KMAF 311710
RWRMAF
MIDLAND AREA WEATHER ROUNDUP
NATIONAL WEATHER SERVICE MIDLAND TX
1200 PM CDT THU JUL 31 2014

...IN SOUTHWEST TEXAS AND SOUTHEAST NEW MEXICO...

CITY           SKY/WX    TMP DP  RH WIND       PRES   REMARKS
ALPINE         CLOUDY    68  61  79 NE10      30.32S
ANDREWS        PTSUNNY   75  58  54 NE10G17   30.21S
ARTESIA        CLOUDY    66  66 100 E3        30.24S
BIG SPRING     CLOUDY    74  58  56 N13G18    30.20S
CARLSBAD       LGT RAIN  67  63  87 CALM      30.22S
DRYDEN           N/A     85  66  53 N10       30.11R
FORT STOCKTON  CLOUDY    75  62  64 N7        30.20S
GUAD PASS      CLOUDY    63  60  90 NE18      30.31S
HOBBS          MOSUNNY   72  57  60 NE9       30.23F
MARFA          MOSUNNY   73  61  64 NE18G25   30.27F
MIDLAND AIRPK  CLOUDY    75  61  62 N10       30.19F
MIDLAND INTL   CLOUDY    75  61  61 NE13      30.19R
ODESSA         PTSUNNY   76  60  57 N9        30.20S
PECOS          CLOUDY    72  62  71 N7        30.19F
PRESIDIO       FAIR      86  62  43 NE15G23   30.11S
SEMINOLE       CLOUDY    72  56  58 NE9       30.23F
SNYDER         CLOUDY    71  60  67 N13       30.17S
WINK           CLOUDY    72  63  73 NW6       30.19S
$$
...OTHER STATIONS IN TEXAS...

CITY           SKY/WX    TMP DP  RH WIND       PRES   REMARKS
ABILENE        CLOUDY    72  64  76 N17       30.12S
AMARILLO       SUNNY     72  52  49 E9G17     30.26S
AUSTIN         CLOUDY    88  73  61 S5        29.99S
BROWNSVILLE    MOSUNNY   93  74  53 S16G23    29.94S HX 103
CORPUS CHRISTI PTSUNNY   94  72  48 S12G21    29.95R HX 102
DALLAS FTW     DRIZZLE   75  71  87 NW15      29.98R FOG
DEL RIO        CLOUDY    86  71  60 N7        30.01S
EL PASO        PTSUNNY   77  60  55 CALM      30.21F
HOUSTON INT    CLOUDY    88  73  61 VRB5      30.00S
LUBBOCK        MOSUNNY   75  57  53 N5        30.22S
SAN ANGELO     PTSUNNY   82  63  52 N12G17    30.11R
SAN ANTONIO    PTSUNNY   88  73  61 NW5       30.01R
WACO           PTSUNNY   89  67  47 W12       29.98S
WICHITA FALLS  NOT AVBL
$$
...OTHER LOCATIONS IN NEW MEXICO...

CITY           SKY/WX    TMP DP  RH WIND       PRES   REMARKS
ALAMAGORDO     PTSUNNY   75  63  64 CALM      30.25S
ALBUQUERQUE    PTSUNNY   73  56  54 S5        30.29R
CANNON AFB     MOSUNNY   71  53  52 VRB6      30.28F
CLOVIS         NOT AVBL
HOLLOMAN AFB   PTSUNNY   77  64  65 VRB2      30.22S
ROSWELL        CLOUDY    73  60  63 N8        30.23F
RUIDOSO        PTSUNNY   63  55  77 W5        30.41F
SANTA FE       PTSUNNY   67  56  67 SE13      30.35S
TRUTH OR CONSE MOSUNNY   75  61  61 SE7       30.24F
TUCUMCARI      SUNNY     74  54  49 VRB6      30.28R
$$

USA.gov is the U.S. government's official web portal to all federal, state and local government web resources and services.